TimeMDT,TemperatureF,Dew PointF,Humidity,Sea Level PressureIn,VisibilityMPH,Wind Direction,Wind SpeedMPH,Gust SpeedMPH,PrecipitationIn,Events,Conditions,WindDirDegrees,DateUTC
12:53 AM,73.9,37.0,26,29.92,10.0,SE,10.4,-,N/A,,Clear,130,2013-07-10 06:53:00
1:53 AM,72.0,37.9,29,29.90,10.0,SE,8.1,-,N/A,,Clear,130,2013-07-10 07:53:00
2:53 AM,72.0,37.9,29,29.89,10.0,ESE,6.9,-,N/A,,Clear,120,2013-07-10 08:53:00
3:53 AM,71.1,37.9,30,29.90,10.0,SE,6.9,-,N/A,,Clear,140,2013-07-10 09:53:00
4:53 AM,69.1,39.9,35,29.91,10.0,Calm,Calm,-,N/A,,Clear,0,2013-07-10 10:53:00
5:53 AM,66.0,41.0,40,29.94,10.0,ESE,3.5,-,N/A,,Clear,120,2013-07-10 11:53:00
6:53 AM,66.9,43.0,42,29.95,10.0,ESE,5.8,-,N/A,,Clear,120,2013-07-10 12:53:00
7:53 AM,68.0,43.0,40,29.97,10.0,SSE,4.6,-,N/A,,Clear,160,2013-07-10 13:53:00
8:53 AM,75.9,42.1,30,29.97,10.0,Calm,Calm,-,N/A,,Clear,0,2013-07-10 14:53:00
9:53 AM,82.9,43.0,24,29.96,10.0,Variable,3.5,-,N/A,,Clear,0,2013-07-10 15:53:00
10:53 AM,88.0,41.0,19,29.94,10.0,Variable,3.5,-,N/A,,Clear,0,2013-07-10 16:53:00
11:53 AM,91.9,39.0,16,29.91,10.0,North,8.1,-,N/A,,Clear,10,2013-07-10 17:53:00
12:53 PM,93.9,34.0,12,29.88,10.0,NNW,5.8,-,N/A,,Clear,340,2013-07-10 18:53:00
1:53 PM,95.0,35.1,12,29.85,10.0,NW,5.8,-,N/A,,Clear,320,2013-07-10 19:53:00
2:53 PM,96.1,37.0,13,29.83,10.0,West,4.6,-,N/A,,Clear,280,2013-07-10 20:53:00
3:53 PM,97.0,37.0,12,29.81,10.0,North,10.4,18.4,N/A,,Clear,350,2013-07-10 21:53:00
4:53 PM,96.1,34.0,11,29.78,10.0,North,11.5,-,N/A,,Clear,360,2013-07-10 22:53:00
5:53 PM,96.1,35.1,12,29.76,10.0,NNW,8.1,-,N/A,,Clear,330,2013-07-10 23:53:00
6:53 PM,95.0,36.0,13,29.75,10.0,NNW,9.2,-,N/A,,Clear,340,2013-07-11 00:53:00
7:53 PM,91.0,39.9,17,29.76,10.0,Calm,Calm,-,N/A,,Clear,0,2013-07-11 01:53:00
8:53 PM,84.0,45.0,25,29.77,10.0,Calm,Calm,-,N/A,,Clear,0,2013-07-11 02:53:00
9:53 PM,78.1,43.0,29,29.80,10.0,SE,6.9,-,N/A,,Clear,140,2013-07-11 03:53:00
10:53 PM,73.9,41.0,30,29.82,10.0,ESE,8.1,-,N/A,,Clear,110,2013-07-11 04:53:00
11:53 PM,73.0,41.0,31,29.83,10.0,ESE,11.5,-,N/A,,Clear,120,2013-07-11 05:53:00